sat.trackr.live / text

‹ back to catalog

O3B FM17

NORAD 44114 · 2019-020C

PAYLOAD ACTIVE UNKNOWN

§ Identity

Operator
Country
O3B
Launch date
2019-04-04
Launch site
FRGUI
Launch vehicle
Mass (kg)
RCS (m²)

Purposes: comms

External: N2YO · Heavens-Above · Gunter

§ Orbital elements

Epoch: 2026-09-18T16:01:59.173536Z

Period
287.93 min
Inclination
0.0486°
Eccentricity
0.0002583
Mean motion
5.00115970 rev/d
Perigee alt
8,062.2 km
Apogee alt
8,069.6 km
Semi-major
14,444.0 km
B*
0.0000e+0
RAAN
12.8845°
Arg perigee
166.4370°
Mean anomaly
180.6810°
Rev number
13,619

§ Raw data

O3B FM171 44114U 19020C   26261.66804599 -.00000028  00000+0  00000+0 0  99992 44114   0.0486  12.8845 0002583 166.4370 180.6810  5.00115970136199

JSON: /api/v1/satellites/44114 · /tle

For live sub-satellite position, see the globe view (requires WebGL).

§ Visibility from observer

Set your observer location to see the next 7 days of passes ≥ 10°. The values pass through the URL so the page stays shareable.

No JS? Fill the form by hand. The geolocation button needs JavaScript.